Location: Amos
(48.5670°N, 78.1170°W)
Time: 05:41:24
(UTC-05:00)

ISS - Visible Passes

Search period start: 28 November 2023 00:00
Search period end: 08 December 2023 00:00
Orbit: 416 x 418 km, 51.6° (Epoch: 28 November)

Date Brightness Start Highest point End Pass type
(mag) Time Alt. Az. Time Alt. Az. Time Alt. Az.
28 Nov -3.4 17:41:10 10° WNW 17:44:27 50° N 17:46:01 26° ENE visible
28 Nov -0.9 19:17:59 10° WNW 19:18:56 18° WNW 19:18:56 18° WNW visible
29 Nov -3.3 16:52:47 10° WNW 16:56:02 47° N 16:59:19 10° ENE visible
29 Nov -3.6 18:29:38 10° WNW 18:32:39 69° WNW 18:32:39 69° WNW visible
30 Nov -3.8 17:41:16 10° WNW 17:44:38 68° NNE 17:46:25 25° E visible
30 Nov -0.9 19:18:11 10° W 19:19:21 18° W 19:19:21 18° W visible
01 Dec -3.6 16:52:51 10° WNW 16:56:10 56° NNE 16:59:29 10° E visible
01 Dec -3.0 18:29:39 10° WNW 18:32:55 48° SSW 18:33:11 46° SSW visible
02 Dec -3.6 17:41:10 10° WNW 17:44:30 70° SSW 17:47:09 15° ESE visible
02 Dec -0.7 19:18:48 10° W 19:20:05 14° WSW 19:20:05 14° WSW visible
03 Dec -3.8 16:52:38 10° WNW 16:56:00 85° NNE 16:59:22 10° ESE visible
03 Dec -1.5 18:29:46 10° W 18:32:27 22° SW 18:34:14 15° S visible
04 Dec -2.1 17:40:58 10° W 17:44:03 34° SW 17:47:06 10° SSE visible
05 Dec -2.8 16:52:16 10° WNW 16:55:32 51° SSW 16:58:47 10° SE visible
06 Dec -0.7 17:41:06 10° W 17:43:13 16° SW 17:45:19 10° S visible
07 Dec -1.1 16:51:56 10° W 16:54:42 24° SW 16:57:28 10° SSE visible
